sat.trackr.live / text

‹ back to catalog

KUIPER-00551

NORAD 69618 · 2026-140AC

PAYLOAD ACTIVE UNKNOWN

§ Identity

Operator
Country
US
Launch date
2026-06-17
Launch site
FRGUI
Launch vehicle
Mass (kg)
RCS (m²)

External: N2YO · Heavens-Above · Gunter

§ Orbital elements

Epoch: 2026-09-19T16:59:06.648576Z

Period
93.60 min
Inclination
51.8785°
Eccentricity
0.0010979
Mean motion
15.38458258 rev/d
Perigee alt
443.2 km
Apogee alt
458.2 km
Semi-major
6,828.8 km
B*
5.0013e-4
RAAN
301.0146°
Arg perigee
146.8724°
Mean anomaly
213.2953°
Rev number
1,578

§ Raw data

KUIPER-005511 69618U 26140AC  26262.70771584  .00018960  00000+0  50013-3 0  99952 69618  51.8785 301.0146 0010979 146.8724 213.2953 15.38458258 15784

JSON: /api/v1/satellites/69618 · /tle

For live sub-satellite position, see the globe view (requires WebGL).

§ Visibility from observer

Set your observer location to see the next 7 days of passes ≥ 10°. The values pass through the URL so the page stays shareable.

No JS? Fill the form by hand. The geolocation button needs JavaScript.